Location: Altmatt
(47.1333°N, 8.7000°E)
Time: 08:44:55
(UTC+00:00)

SL-8 Rocket - Pass Details

Date: 13 July 2020
Orbit: 957 x 990 km, 82.9° (Epoch: 04 August)

Event Time Altitude Azimuth Distance (km) Brightness Sun altitude
Exits shadow 21:34:06 25° 158° (SSE) 1,843 4.8 -16.3°
Maximum altitude 21:37:36 54° 92° (E) 1,155 4.2 -16.6°
Drops below altitude 10° 21:43:35 10° 17° (NNE) 2,700 7.0 -17.1°
Sets 21:46:08 0° 13° (NNE) 3,652 7.9 -17.3°
